Weather History for Atlantic City, NJ

Change the Weather History Date:

Tuesday, March 26, 2013

  Actual Average Record
Temperature  
Mean Temperature 42 °F 45 °F  
Max Temperature 51 °F 54 °F 72 °F (1929)
Min Temperature 33 °F 35 °F 16 °F (1981)
Degree Days  
Heating Degree Days 23 20  
Month to date heating degree days 697 591  
Since 1 July heating degree days 4115 4182  
Cooling Degree Days 0 0  
Month to date cooling degree days 0 0  
Year to date cooling degree days 0 0  
Moisture  
Dew Point 30 °F    
Average Humidity 66    
Maximum Humidity 96    
Minimum Humidity 36    
Precipitation  
Precipitation T in 0.14 in 1.72 in (1988)
Month to date precipitation 4.41 3.36  
Year to date precipitation 11.87 9.45  
Snow  
Snow 0.00 in 0.00 in 3.90 in (2014)
Month to date snowfall 3.1 1.0  
Since 1 July snowfall 14.5 16.1  
Snow Depth T in    
Sea Level Pressure  
Sea Level Pressure 29.77 in    
Wind  
Wind Speed 8 mph (WNW)    
Max Wind Speed 17 mph    
Max Gust Speed 22 mph    
Visibility 9 miles    
Events Rain    
T = Trace of Precipitation, MM = Missing Value Source: NWS Daily Summary

Daily Weather History Graph

Daily Weather History Graph

Search for Another Location

Airport:

Trip Planner

Search our weather history database for the weather conditions in past years. The results will help you decide how hot, cold, wet, or windy it might be!

Date:

Astronomy

Mar. 26, 2013 Rise Set
Actual Time 6:51 AM EDT 7:16 PM EDT
Civil Twilight 6:24 AM EDT 7:43 PM EDT
Nautical Twilight 5:53 AM EDT 8:15 PM EDT
Astronomical Twilight 5:20 AM EDT 8:47 PM EDT
Moon 6:50 PM EDT (3/26) 6:06 AM EDT (3/26)
Length of Visible Light 13h 18m
Length of Day
12h 24m
Waxing Gibbous, 99% of the Moon is Illuminated
Mar 26
Waxing Gibbous
Mar 27
Full
Apr 3
Last Quarter
Apr 10
New
Apr 18
First Quarter

Hourly Weather History & Observations

Time (EDT) Temp. Windchill Dew Point Humidity Pressure Visibility Wind Dir Wind Speed Gust Speed Precip Events Conditions
12:54 AM 34.0 °F 26.6 °F 32.0 °F 92% 29.65 in 6.0 mi NW 9.2 mph - 0.01 in Rain Light Rain
1:54 AM 34.0 °F 28.0 °F 32.0 °F 92% 29.66 in 7.0 mi WNW 6.9 mph - 0.00 in   Overcast
2:08 AM 34.0 °F 26.6 °F 32.0 °F 92% 29.66 in 7.0 mi WNW 9.2 mph - N/A   Overcast
2:54 AM 34.0 °F 26.6 °F 32.0 °F 92% 29.67 in 7.0 mi West 9.2 mph - N/A   Scattered Clouds
3:54 AM 33.1 °F 26.1 °F 30.9 °F 92% 29.68 in 9.0 mi WNW 8.1 mph - N/A   Mostly Cloudy
4:15 AM 33.1 °F 26.1 °F 30.9 °F 92% 29.68 in 8.0 mi WNW 8.1 mph - N/A   Overcast
4:25 AM 33.1 °F 26.9 °F 30.9 °F 92% 29.68 in 8.0 mi WNW 6.9 mph - N/A   Mostly Cloudy
4:54 AM 33.1 °F 27.7 °F 30.9 °F 92% 29.70 in 8.0 mi WNW 5.8 mph - N/A   Partly Cloudy
5:54 AM 33.1 °F 28.7 °F 32.0 °F 96% 29.72 in 6.0 mi West 4.6 mph - N/A   Overcast
6:54 AM 33.1 °F 28.7 °F 30.9 °F 92% 29.74 in 7.0 mi West 4.6 mph - N/A   Overcast
7:54 AM 34.0 °F 28.8 °F 32.0 °F 92% 29.76 in 6.0 mi West 5.8 mph - N/A   Overcast
8:54 AM 36.0 °F 29.6 °F 34.0 °F 93% 29.78 in 10.0 mi WNW 8.1 mph - N/A   Overcast
9:54 AM 39.9 °F 33.9 °F 34.0 °F 79% 29.79 in 10.0 mi WNW 9.2 mph - N/A   Mostly Cloudy
10:54 AM 43.0 °F 38.2 °F 35.1 °F 74% 29.80 in 10.0 mi WNW 8.1 mph - N/A   Mostly Cloudy
11:54 AM 46.9 °F - 33.1 °F 59% 29.80 in 10.0 mi NW 10.4 mph - N/A   Clear
12:54 PM 48.9 °F - 30.0 °F 48% 29.79 in 10.0 mi WNW 13.8 mph 18.4 mph N/A   Scattered Clouds
1:54 PM 46.9 °F - 28.0 °F 48% 29.79 in 10.0 mi WNW 8.1 mph - N/A   Overcast
2:54 PM 48.0 °F - 27.0 °F 44% 29.79 in 10.0 mi WNW 10.4 mph - N/A   Mostly Cloudy
3:54 PM 48.9 °F - 23.0 °F 36% 29.79 in 10.0 mi NNW 10.4 mph - N/A   Overcast
4:54 PM 48.9 °F - 26.1 °F 41% 29.80 in 10.0 mi West 6.9 mph - N/A   Overcast
5:54 PM 48.9 °F - 26.1 °F 41% 29.81 in 10.0 mi WNW 12.7 mph - N/A   Mostly Cloudy
6:54 PM 48.0 °F - 24.1 °F 39% 29.83 in 10.0 mi West 8.1 mph - N/A   Clear
7:54 PM 45.0 °F 42.6 °F 25.0 °F 46% 29.85 in 10.0 mi SW 4.6 mph - N/A   Mostly Cloudy
8:54 PM 46.0 °F 41.9 °F 26.1 °F 46% 29.88 in 10.0 mi West 8.1 mph - N/A   Overcast
9:54 PM 44.1 °F 40.1 °F 28.0 °F 53% 29.89 in 10.0 mi WNW 6.9 mph - N/A   Overcast
10:54 PM 43.0 °F 38.2 °F 30.0 °F 60% 29.91 in 10.0 mi WNW 8.1 mph - N/A   Overcast
11:54 PM 41.0 °F 35.2 °F 30.9 °F 67% 29.91 in 10.0 mi West 9.2 mph - N/A   Mostly Cloudy